GSAT-17

Last updated on Sat Sep 05 2026 00:02:48 GMT+0000 (Coordinated Universal Time)

1 42815U 17040B 26247.47186706 -.00000264 00000+0 00000+0 0 9993 2 42815 0.0340 257.2458 0003856 355.6445 354.0825 1.00271472 33586
UTC large
Height (km)
Speed (km/s)
/
Latitude / Longitude
Inclination (degrees)
Orbital Period (minutes)
Azimuth
Elevation
Range (km)
Doppler Factor

Next 0 passes for location: London (51.5072 / 0.1276)

No passes found over London.
GSAT-17